Location: Newark
(60.5925°N, 45.5911°E)
Time: 00:07:27
(UTC+00:00)

ISS - Pass Details

Date: 27 September 2019
Orbit: 411 x 421 km, 51.6° (Epoch: 21 October)

Event Time Altitude Azimuth Distance (km) Brightness Sun altitude
Rises 17:00:04 0° 248° (WSW) 2,346 0.6 -17.0°
Reaches altitude 10° 17:02:36 10° 228° (SW) 1,483 -0.7 -17.3°
Enters shadow 17:04:32 17° 193° (SSW) 1,114 -1.8 -17.5°
